Wind_Speed
36 36 37 37 37 37 37 36 36 36 35 34 33 32 32 32 31 31 30 30 29 29 29 28 27 26 26 25 25 24 24 24 23 22 22 21 21 20 20 19 20 20 20
38 38 38 39 39 39 39 38 38 37 37 36 35 34 34 34 33 32 32 31 31 30 30 30 29 28 28 28 27 26 26 26 25 24 24 24 23 22 22 21 21 22 22
39 39 39 40 40 40 40 40 40 39 39 39 38 37 36 36 35 35 34 33 32 32 32 31 30 30 29 29 29 28 27 27 26 25 25 25 24 24 24 23 23 23 23
40 40 41 40 40 41 41 41 41 41 41 41 40 39 39 38 37 37 36 35 35 34 33 33 32 31 30 30 30 29 28 28 27 26 26 26 26 26 25 25 24 24 24
41 41 42 42 42 42 43 43 42 43 42 42 41 41 41 40 39 39 39 38 37 36 35 34 33 33 32 32 31 31 30 30 29 29 28 28 27 27 27 26 26 26 25
43 43 43 43 43 43 43 43 44 44 43 43 43 42 42 42 42 41 41 40 40 39 38 37 36 35 34 34 33 33 33 32 31 31 30 29 28 28 28 27 27 27 26
44 45 45 45 44 44 44 44 44 45 45 45 45 44 44 43 44 44 43 43 43 42 41 40 39 38 37 36 35 34 34 34 32 32 31 31 30 29 28 28 28 27 27
46 46 46 46 46 46 45 45 45 45 46 46 46 46 45 45 46 45 45 45 45 44 43 43 42 41 40 39 38 37 36 35 34 34 33 33 32 31 30 29 29 29 29
47 48 47 47 47 47 47 47 46 46 46 47 47 47 47 47 47 48 47 46 46 45 45 45 44 43 42 42 41 40 39 37 36 36 35 34 33 32 32 31 31 32 31
48 48 48 48 48 48 48 49 48 48 48 48 48 48 49 48 49 49 49 49 48 48 48 47 46 45 44 44 43 42 41 39 38 37 37 36 35 35 34 33 33 33 33
48 48 49 48 48 48 48 49 51 50 50 50 50 49 50 51 51 51 50 50 50 50 49 48 48 47 45 45 44 44 43 41 41 40 39 38 37 36 36 36 35 33 33
49 49 48 48 48 48 48 50 51 51 52 51 51 51 50 51 52 52 52 51 51 51 51 50 50 49 48 47 45 45 44 44 43 42 41 39 39 38 37 37 36 36 35
49 49 49 49 49 49 49 49 50 50 51 52 53 52 51 51 52 53 53 52 52 52 52 52 51 50 49 48 47 46 45 45 44 44 43 41 40 39 39 38 37 37 37
50 50 50 49 50 50 50 50 50 50 51 52 53 53 53 53 53 54 53 53 53 53 54 53 52 52 51 50 49 48 47 46 46 45 44 43 42 41 40 40 39 39 39
50 51 50 51 51 51 50 50 50 51 51 52 53 54 54 54 54 54 54 54 54 53 53 54 54 54 53 52 51 49 49 48 46 46 45 44 44 43 43 42 41 41 40
50 51 50 49 49 50 51 51 52 51 51 51 52 54 54 54 54 53 53 54 54 55 55 55 55 54 54 54 52 51 49 49 48 47 47 46 45 45 44 44 43 42 41
48 49 50 49 49 49 50 51 51 51 51 51 52 52 53 53 53 53 53 53 54 55 55 55 55 55 54 54 54 52 51 50 49 48 47 47 47 46 46 45 44 44 43
47 48 49 49 49 49 48 48 49 50 50 50 50 50 51 52 52 51 52 52 53 53 54 55 55 55 55 55 54 54 53 52 51 50 50 49 49 48 47 46 45 45 45
48 48 47 47 48 48 47 47 47 47 48 48 48 48 48 50 51 51 51 52 52 53 53 54 55 55 56 55 55 55 54 53 53 52 51 50 50 49 49 48 48 47 46
47 48 47 46 46 46 46 47 47 47 46 46 46 47 48 48 49 50 50 51 52 52 53 54 54 54 54 54 55 54 54 54 53 52 51 50 49 49 49 49 48 48 47
46 46 46 45 45 45 46 47 47 47 46 46 47 47 48 48 49 50 50 50 50 51 52 53 53 53 54 53 54 54 53 53 53 52 52 52 51 50 49 49 49 48 48
43 44 44 44 44 44 45 46 47 47 46 46 47 47 47 48 49 49 50 50 50 50 50 51 52 52 52 53 53 53 53 53 53 52 52 52 51 50 50 50 50 50 49
42 41 41 42 42 43 43 44 45 45 45 45 46 47 47 48 49 49 50 50 49 49 50 49 50 50 51 52 52 53 53 54 53 52 52 51 51 50 50 50 50 50 49
41 40 40 40 40 40 41 41 43 44 44 44 45 46 46 47 48 50 50 50 49 49 48 48 49 49 51 51 52 52 52 52 52 51 51 50 51 51 51 50 50 50 49
38 38 38 38 38 38 38 39 40 42 43 44 45 46 46 47 48 49 50 49 49 50 50 49 49 50 51 51 52 52 51 51 51 51 51 51 50 50 50 50 50 50 50
36 36 36 36 36 36 37 38 39 40 41 43 44 45 45 46 47 48 49 50 50 50 51 50 50 50 51 52 52 52 51 51 51 51 51 51 50 50 50 50 50 50 50
Wind_Direction
268 266 264 261 260 259 259 258 256 254 252 251 250 249 249 249 249 248 248 248 248 247 246 245 245 244 244 244 245 246 246 246 247 249 252 252 252 254 255 257 260 261 262
268 265 263 261 260 258 258 257 255 253 251 250 249 249 248 248 249 248 247 247 248 247 247 245 245 245 244 244 245 246 247 248 249 251 253 254 254 255 255 258 260 262 264
268 265 263 262 260 258 257 256 254 252 251 250 249 248 248 247 247 248 246 246 247 247 247 246 246 245 245 245 245 246 247 249 250 251 253 254 254 256 256 259 261 263 264
268 266 264 262 260 258 256 255 253 252 251 250 249 248 248 248 247 247 247 246 246 246 245 246 246 246 247 246 246 246 247 249 250 251 252 253 254 256 258 260 261 262 264
267 266 264 262 260 258 256 254 252 251 250 249 248 248 248 247 247 247 247 246 246 245 244 245 245 246 247 247 247 247 248 249 250 251 252 253 254 256 259 261 262 263 264
267 265 263 262 260 257 255 253 252 250 249 248 248 247 247 246 246 246 245 245 244 244 244 244 245 246 247 247 248 248 248 249 250 252 252 252 254 256 258 260 262 263 264
268 266 263 261 260 257 255 253 252 251 249 248 247 248 247 246 246 246 245 244 243 243 244 244 244 245 246 247 248 248 249 249 249 251 252 252 254 256 258 259 260 262 263
267 266 264 261 259 257 255 254 253 252 250 248 248 248 248 247 246 245 244 244 244 243 244 244 245 245 246 247 248 248 249 249 250 251 252 253 255 257 258 261 262 262 263
266 265 263 260 258 256 254 254 253 251 250 248 248 248 248 248 246 245 244 244 243 243 243 244 245 244 245 247 247 248 248 249 250 251 251 253 254 257 258 260 262 262 263
267 265 262 259 257 255 253 252 252 252 252 250 249 249 249 249 247 245 244 244 244 244 243 243 244 245 245 245 245 247 248 249 250 250 251 253 255 256 258 259 261 261 262
267 264 261 259 258 256 254 253 252 253 252 250 250 250 250 249 248 247 245 244 244 244 243 244 244 244 244 244 245 246 247 248 250 251 252 253 255 257 258 258 259 261 262
265 263 261 259 258 256 255 254 253 253 252 251 250 250 250 249 248 248 246 244 244 244 244 243 243 243 243 243 244 245 246 247 248 249 251 253 254 256 257 258 259 260 261
264 262 260 259 258 257 255 255 254 254 253 252 251 250 250 250 249 249 247 245 245 244 244 244 243 242 242 243 243 245 246 247 248 249 251 253 254 255 256 257 258 260 261
264 262 259 258 258 256 255 256 255 254 254 253 252 251 251 251 250 249 248 246 245 244 243 243 243 242 242 242 243 245 246 247 248 249 250 252 253 254 255 256 258 260 262
265 261 259 259 259 257 256 256 254 254 255 254 253 252 251 250 249 248 248 247 245 243 243 243 242 243 242 243 243 244 245 246 247 248 249 250 252 253 255 256 258 259 261
265 261 259 259 259 258 257 256 255 254 254 254 253 252 250 249 248 247 247 246 245 244 243 242 243 243 243 243 243 243 245 246 247 248 249 250 252 253 255 257 258 259 261
267 263 260 259 258 257 256 255 255 255 254 254 254 252 249 247 246 246 245 245 245 245 243 242 242 242 242 243 244 245 245 246 247 249 249 250 252 253 255 256 258 259 260
267 265 262 260 259 258 257 256 255 255 254 254 253 252 249 246 245 245 245 245 245 245 243 242 242 242 242 242 243 244 245 246 248 248 249 251 252 253 254 256 258 259 260
267 265 264 262 260 258 257 256 255 255 253 252 252 251 249 248 245 245 245 245 245 244 244 243 242 243 243 243 244 244 245 247 247 248 249 251 251 252 254 256 258 259 260
268 266 264 264 261 258 256 255 254 254 252 250 250 249 248 247 246 245 245 244 244 244 244 244 243 242 242 243 244 244 245 247 247 248 249 250 252 253 254 255 257 258 260
268 266 263 262 261 258 256 254 253 252 250 249 249 248 247 246 246 246 245 244 244 245 244 244 244 242 242 242 243 244 245 247 247 248 249 249 251 252 253 254 255 258 259
269 267 264 263 262 260 257 254 251 249 248 248 247 246 245 245 245 245 245 245 245 245 244 244 244 243 243 242 243 243 244 245 246 248 249 250 251 252 253 254 255 257 259
268 266 265 263 262 260 257 255 251 248 246 246 245 245 244 242 242 243 244 244 244 245 244 245 244 243 242 242 243 244 244 244 245 247 248 249 250 251 252 254 255 257 259
268 266 264 263 261 259 257 255 252 250 248 246 245 245 244 242 242 242 242 243 243 244 245 244 244 242 241 241 242 243 243 244 245 246 247 249 250 251 252 254 255 256 258
268 266 264 263 260 258 258 256 252 250 248 246 245 244 244 244 243 243 242 243 244 244 244 244 244 242 242 241 242 242 243 244 245 246 247 249 250 251 252 253 255 256 258
267 265 263 263 260 258 257 256 254 250 248 246 245 243 243 243 243 243 243 244 244 245 245 245 245 244 243 242 243 243 243 243 244 246 247 249 250 251 252 253 255 256 257
Height
5776 5776 5776 5777 5778 5779 5780 5781 5783 5784 5786 5788 5790 5791 5793 5795 5797 5798 5800 5801 5803 5804 5805 5807 5808 5810 5811 5813 5814 5815 5816 5817 5818 5819 5820 5821 5822 5822 5823 5823 5823 5823 5823
5766 5766 5766 5767 5768 5769 5770 5772 5773 5775 5777 5779 5781 5783 5785 5787 5789 5791 5793 5795 5796 5798 5799 5801 5802 5804 5806 5807 5809 5810 5811 5812 5813 5814 5815 5816 5817 5818 5818 5818 5819 5819 5819
5756 5756 5756 5756 5757 5759 5760 5762 5763 5765 5768 5770 5772 5775 5777 5779 5781 5783 5786 5787 5789 5791 5793 5794 5796 5798 5799 5801 5803 5804 5805 5807 5808 5809 5810 5811 5812 5812 5813 5813 5814 5814 5814
5745 5745 5745 5746 5747 5748 5749 5751 5753 5755 5758 5760 5763 5765 5768 5770 5772 5775 5777 5779 5781 5783 5785 5787 5789 5791 5793 5795 5796 5798 5799 5801 5802 5803 5804 5805 5806 5807 5807 5808 5808 5809 5809
5734 5734 5734 5735 5736 5737 5738 5740 5742 5744 5747 5750 5753 5755 5758 5760 5763 5765 5768 5770 5773 5775 5777 5779 5782 5784 5786 5788 5789 5791 5793 5794 5796 5797 5798 5799 5800 5801 5802 5802 5803 5803 5803
5722 5722 5722 5723 5724 5725 5727 5729 5731 5733 5736 5739 5742 5745 5747 5750 5753 5755 5758 5761 5763 5766 5768 5771 5773 5776 5778 5780 5782 5784 5785 5787 5789 5790 5791 5792 5793 5795 5795 5796 5796 5797 5797
5710 5710 5711 5711 5712 5714 5715 5717 5719 5721 5724 5727 5731 5734 5736 5739 5742 5745 5747 5751 5753 5756 5759 5762 5765 5767 5770 5772 5774 5776 5778 5780 5781 5783 5784 5786 5787 5788 5788 5789 5790 5790 5791
5698 5698 5698 5699 5700 5702 5704 5705 5707 5710 5712 5715 5719 5721 5725 5728 5731 5734 5736 5740 5743 5746 5749 5752 5755 5758 5761 5763 5765 5767 5769 5772 5773 5775 5776 5778 5779 5780 5781 5782 5783 5783 5784
5685 5685 5685 5686 5688 5689 5692 5694 5696 5698 5700 5703 5705 5709 5712 5716 5719 5723 5725 5728 5732 5735 5738 5741 5745 5748 5751 5753 5756 5758 5761 5763 5765 5767 5768 5770 5771 5773 5774 5775 5775 5776 5777
5671 5671 5671 5672 5674 5676 5678 5681 5683 5685 5688 5690 5693 5696 5699 5702 5706 5710 5714 5717 5720 5723 5727 5730 5734 5737 5740 5743 5746 5749 5751 5754 5756 5758 5759 5761 5763 5764 5766 5767 5768 5768 5769
5657 5657 5657 5659 5660 5662 5665 5667 5669 5672 5674 5677 5680 5683 5685 5689 5692 5696 5701 5705 5708 5711 5715 5718 5722 5726 5729 5732 5735 5738 5741 5744 5746 5748 5750 5752 5754 5756 5757 5758 5759 5760 5761
5644 5643 5644 5645 5647 5649 5651 5653 5655 5658 5661 5663 5666 5669 5672 5675 5679 5682 5687 5691 5695 5698 5702 5706 5710 5713 5718 5721 5724 5727 5730 5733 5736 5738 5740 5742 5745 5746 5748 5749 5750 5751 5752
5629 5629 5630 5632 5633 5635 5637 5639 5642 5644 5646 5649 5652 5655 5658 5661 5664 5668 5672 5676 5680 5685 5689 5693 5697 5701 5705 5709 5713 5716 5719 5722 5725 5727 5730 5732 5734 5736 5738 5739 5741 5742 5743
5615 5615 5616 5618 5619 5621 5623 5625 5627 5630 5632 5635 5637 5640 5643 5647 5650 5653 5657 5661 5665 5670 5675 5680 5683 5688 5692 5696 5700 5704 5707 5711 5714 5716 5719 5722 5724 5726 5728 5729 5731 5732 5733
5600 5601 5602 5603 5605 5606 5608 5610 5613 5615 5617 5620 5622 5625 5628 5631 5634 5638 5641 5646 5651 5655 5661 5666 5670 5674 5678 5683 5687 5691 5695 5698 5702 5705 5708 5710 5713 5715 5717 5719 5720 5722 5723
5585 5586 5587 5589 5590 5592 5594 5596 5598 5600 5602 5604 5607 5609 5613 5616 5619 5623 5626 5630 5635 5640 5646 5652 5656 5660 5664 5669 5674 5678 5682 5686 5689 5693 5696 5699 5701 5704 5706 5708 5710 5711 5712
5570 5571 5572 5574 5575 5577 5578 5580 5583 5585 5587 5589 5591 5594 5597 5600 5604 5607 5611 5615 5619 5624 5630 5637 5641 5646 5650 5655 5660 5664 5668 5673 5677 5680 5684 5687 5689 5692 5694 5696 5698 5700 5701
5556 5556 5557 5558 5560 5562 5563 5565 5567 5569 5572 5574 5576 5579 5583 5586 5589 5593 5597 5601 5605 5609 5615 5621 5626 5631 5636 5641 5646 5650 5655 5659 5663 5667 5671 5674 5677 5680 5682 5684 5686 5688 5690
5542 5542 5542 5543 5545 5546 5548 5550 5552 5555 5557 5559 5562 5565 5568 5571 5575 5578 5582 5586 5590 5595 5600 5605 5611 5616 5621 5626 5631 5637 5641 5645 5650 5654 5657 5661 5664 5667 5670 5672 5674 5676 5678
5527 5527 5528 5529 5530 5531 5533 5535 5537 5540 5542 5545 5548 5551 5554 5557 5561 5564 5568 5572 5577 5581 5585 5590 5596 5601 5606 5611 5617 5622 5627 5632 5636 5640 5644 5648 5651 5654 5657 5660 5662 5664 5665
5513 5513 5513 5514 5515 5516 5518 5520 5522 5525 5528 5531 5534 5537 5540 5544 5547 5551 5555 5559 5563 5567 5571 5576 5581 5587 5592 5597 5603 5609 5613 5618 5622 5626 5630 5635 5638 5641 5643 5646 5648 5650 5652
5499 5499 5500 5500 5501 5502 5504 5505 5507 5511 5514 5517 5521 5524 5527 5530 5534 5538 5541 5545 5550 5554 5558 5562 5567 5573 5579 5584 5589 5594 5599 5604 5609 5614 5617 5621 5624 5627 5630 5633 5635 5637 5639
5486 5486 5486 5487 5488 5489 5490 5491 5493 5497 5500 5503 5507 5510 5514 5517 5521 5525 5529 5533 5537 5541 5545 5550 5554 5559 5565 5571 5575 5581 5585 5589 5595 5599 5603 5607 5610 5614 5616 5619 5621 5624 5626
5473 5473 5474 5474 5475 5476 5477 5479 5480 5483 5486 5490 5493 5497 5500 5504 5508 5512 5516 5520 5524 5528 5533 5537 5542 5547 5551 5555 5561 5566 5570 5576 5581 5586 5589 5594 5597 5600 5603 5605 5608 5610 5612
5461 5461 5461 5462 5463 5464 5465 5466 5468 5471 5474 5477 5480 5483 5487 5491 5495 5499 5504 5508 5512 5516 5520 5524 5528 5532 5537 5542 5547 5552 5557 5562 5567 5572 5576 5580 5584 5586 5589 5592 5594 5596 5598
5450 5450 5450 5450 5451 5452 5453 5454 5456 5458 5462 5465 5468 5471 5475 5478 5482 5485 5490 5494 5499 5503 5507 5511 5515 5519 5523 5529 5533 5539 5544 5548 5553 5558 5562 5566 5570 5572 5576 5579 5580 5582 5584